Miscellaneous Local Product
Issued by NWS North Platte, NE

Home | Current Version | Previous Version | Text Only | Print | Product List | Glossary On
Versions: 1 2 3 4 5 6 7 8 9 10 11 12 13 14 15 16 17 18 19 20 21 22 23 24 25 26 27 28 29 30 31 32 33 34 35 36 37 38 39 40 41 42 43 44 45 46 47 48 49 50
000
AXUS43 KLBF 292210
MISLBF


WESTERN AND NORTH CENTRAL NEBRASKA HOURLY WEATHER ROUNDUP
NATIONAL WEATHER SERVICE NORTH PLATTE NE
500 PM CDT SAT AUG 29 2015

NOTE: "FAIR" INDICATES FEW OR NO CLOUDS BELOW 12,000 FEET WITH NO
SIGNIFICANT WEATHER AND/OR OBSTRUCTIONS TO VISIBILITY.

NOTE: STATIONS NOT REPORTING VARIABLES SUCH AS SKY/WEATHER OR
PRESSURE ARE PROVIDED BY THE NEBRASKA DEPARTMENT OF
ROADS...RAWS...AND APRS NETWORKS...AND ARE NOT UNDER
NATIONAL WEATHER SERVICE QUALITY CONTROL.

...OBSERVATIONS IN AND NEAR THE EASTERN PANHANDLE OF NEBRASKA...

CITY           SKY/WX    TMP DP  RH WIND       PRES   REMARKS
PINE RIDGE     SUNNY     93  41  16 S12       30.00F
CHADRON        SUNNY     96  39  13 S14       29.98F HX  91
ALLIANCE       SUNNY     93  39  15 S10       30.06F
SIDNEY         SUNNY     92  37  14 S10       30.12F
CRESCENT LAKE    N/A     92  34  13 S6G18       N/A
BIG SPRINGS      N/A     90  50  25 S5          N/A
$$

...OBSERVATIONS IN NORTH CENTRAL NEBRASKA...

CITY           SKY/WX    TMP DP  RH WIND       PRES   REMARKS
VALENTINE      SUNNY     93  47  20 S14       30.00F
THEDFORD       SUNNY     91  56  30 S8G16     30.05F
AINSWORTH      SUNNY     89  58  34 S7        30.02F
O`NEILL        SUNNY     85  62  45 S8        30.02F
ORD            SUNNY     86  59  39 E7        30.02F
BROKEN BOW     SUNNY     87  60  40 S7        30.05F
SPRINGVIEW       N/A     91  61  36 SW3         N/A  HX  91
SARGENT          N/A     86  58  38 CALM        N/A
CHAMBERS         N/A     87  60  39 S5          N/A
EWING            N/A     83  70  65 MISG        N/A
$$

...OBSERVATIONS IN SOUTHWEST NEBRASKA AND FAR NORTHEAST COLORADO...

CITY           SKY/WX    TMP DP  RH WIND       PRES   REMARKS
WRAY           FAIR      95  36  12 S9G20     30.09F HX  90
HOLYOKE        FAIR      93  52  24 S9        30.09F HX  90
IMPERIAL       MOSUNNY   93  44  18 SE6       30.07F
OGALLALA       SUNNY     93  44  18 S9        30.06F
NORTH PLATTE   MOSUNNY   89  58  34 S6        30.05F
MCCOOK         MOSUNNY   91  47  21 E6        30.05F
LEXINGTON      MOSUNNY   87  60  40 SE8       30.06S
PAXTON           N/A     89  57  33 S8          N/A
BRADY            N/A     85  66  52 CALM        N/A
CALLAWAY         N/A     84  72  67 SE5         N/A
$$

...OBSERVATIONS IN CENTRAL LINCOLN COUNTY AREA...

CITY           SKY/WX    TMP DP  RH WIND       PRES   REMARKS
N.P. AIRPORT   MOSUNNY   89  58  34 S6        30.05F
N.P. DOWNTOWN    N/A     91  54  28 S3          N/A
N.P. SOUTHEAST   N/A     91  54  28 S3          N/A
$$

...SOME OBSERVATIONS FROM AROUND THE REGION...

CITY           SKY/WX    TMP DP  RH WIND       PRES   REMARKS
DENVER         MOSUNNY   90  33  13 VRB3      30.14F
LARAMIE        SUNNY     82  27  13 VRB5      30.27F
CHEYENNE       SUNNY     84  35  17 S6G17     30.20F
SCOTTSBLUFF    SUNNY     92  43  18 S9        30.05F
RAPID CITY     SUNNY     93  51  23 S12       29.96F HX  90
PIERRE         SUNNY     94  61  33 S13       29.89F HX  94
WINNER         FAIR      89  65  44 SE8       29.96F HX  91
SIOUX FALLS    CLOUDY    73  63  70 S9        30.01F
OMAHA          CLOUDY    72  63  73 CALM      30.04F
GRAND ISLAND   SUNNY     81  60  48 SE6       30.06S
KANSAS CITY    CLOUDY    75  68  78 N8        30.01R
WICHITA        PTSUNNY   72  61  68 N12       30.03F
HAYS           SUNNY     88  48  25 NE10      30.04F
LIBERAL        SUNNY     88  48  25 NE6       30.10F
GOODLAND       SUNNY     91  38  15 S12       30.12F
$$



USA.gov is the U.S. government's official web portal to all federal, state and local government web resources and services.